GW3555 Weather Reports


Display with metric or nautical units.
time (UTC)temp
F
wind
direction
speed
MPH
gust
MPH
rain 1hr
in
rain 24hr
in
rain mn
in
humidity
%
barometer
mb
20260504234606 78 117 0.0 3.0 0.00 0.00 0.00 26 1008.9
20260504234037 78 277 0.0 2.0 0.00 0.00 0.00 26 1008.9
20260504233519 79 228 0.0 3.0 0.00 0.00 0.00 26 1008.9
20260504233251 79 305 1.0 7.0 0.00 0.00 0.00 26 1009.0
20260504232524 79 220 0.0 2.0 0.00 0.00 0.00 24 1009.0
20260504232017 79 188 0.0 4.0 0.00 0.00 0.00 24 1008.8
20260504231648 80 352 1.0 4.0 0.00 0.00 0.00 24 1009.0
20260504231014 80 51 0.0 3.0 0.00 0.00 0.00 24 1009.0
20260504230535 80 300 0.0 3.0 0.00 0.00 0.00 24 1009.1
20260504230141 80 311 1.0 3.0 0.00 0.00 0.00 22 1009.2
20260504225542 80 201 1.0 3.0 0.00 0.00 0.00 23 1009.2
20260504225032 80 103 0.0 3.0 0.00 0.00 0.00 23 1009.2
20260504224643 80 266 1.0 3.0 0.00 0.00 0.00 25 1009.2
20260504224043 80 337 0.0 2.0 0.00 0.00 0.00 23 1009.2
20260504223541 81 204 0.0 3.0 0.00 0.00 0.00 23 1009.3
20260504223129 81 288 0.0 4.0 0.00 0.00 0.00 22 1009.3
20260504222531 81 266 1.0 4.0 0.00 0.00 0.00 23 1009.4
20260504222029 81 347 0.0 4.0 0.00 0.00 0.00 24 1009.3
20260504221610 80 352 1.0 7.0 0.00 0.00 0.00 23 1009.4
20260504221030 80 360 1.0 7.0 0.00 0.00 0.00 22 1009.4
20260504220528 81 281 2.0 7.0 0.00 0.00 0.00 23 1009.4
20260504220109 81 254 2.0 4.0 0.00 0.00 0.00 23 1009.7
20260504215538 82 156 1.0 4.0 0.00 0.00 0.00 23 1009.7
20260504215040 82 101 2.0 4.0 0.00 0.00 0.00 21 1009.7
20260504214559 82 183 1.0 5.0 0.00 0.00 0.00 20 1009.8
20260504214032 83 313 3.0 5.0 0.00 0.00 0.00 21 1009.8
20260504213518 83 91 1.0 5.0 0.00 0.00 0.00 20 1009.8
20260504213037 83 312 2.0 4.0 0.00 0.00 0.00 22 1009.9
20260504212538 83 238 0.0 8.0 0.00 0.00 0.00 23 1009.8
20260504212038 82 36 2.0 8.0 0.00 0.00 0.00 21 1009.9
20260504211653 82 211 1.0 6.0 0.00 0.00 0.00 22 1009.9
20260504211017 82 66 2.0 6.0 0.00 0.00 0.00 21 1009.8
20260504210529 82 254 1.0 7.0 0.00 0.00 0.00 22 1009.9
20260504210121 82 279 1.0 7.0 0.00 0.00 0.00 22 1009.9
20260504205537 82 311 2.0 6.0 0.00 0.00 0.00 22 1009.9
20260504205038 82 9 1.0 6.0 0.00 0.00 0.00 20 1010.1
20260504204623 83 217 1.0 5.0 0.00 0.00 0.00 22 1010.1
20260504204036 83 288 1.0 6.0 0.00 0.00 0.00 21 1010.2
20260504203525 83 250 1.0 4.0 0.00 0.00 0.00 23 1010.2
20260504203153 82 336 1.0 5.0 0.00 0.00 0.00 21 1010.3
20260504202530 82 48 1.0 4.0 0.00 0.00 0.00 20 1010.2
20260504202020 82 134 2.0 4.0 0.00 0.00 0.00 21 1010.3
20260504201616 82 49 1.0 6.0 0.00 0.00 0.00 22 1010.3
20260504201031 81 159 1.0 7.0 0.00 0.00 0.00 20 1010.3
20260504200530 81 183 2.0 9.0 0.00 0.00 0.00 22 1010.5
20260504200138 81 178 2.0 7.0 0.00 0.00 0.00 23 1010.5
20260504195541 81 228 2.0 6.0 0.00 0.00 0.00 21 1010.6
20260504195020 81 327 1.0 5.0 0.00 0.00 0.00 22 1010.4
20260504194545 81 134 1.0 4.0 0.00 0.00 0.00 22 1010.6
20260504194034 81 238 1.0 6.0 0.00 0.00 0.00 21 1010.6
20260504193538 81 352 2.0 6.0 0.00 0.00 0.00 22 1010.7
20260504193052 80 261 1.0 5.0 0.00 0.00 0.00 23 1010.8
20260504192530 80 100 1.0 7.0 0.00 0.00 0.00 22 1010.8
20260504192016 80 217 1.0 8.0 0.00 0.00 0.00 22 1010.9
20260504191610 80 241 1.0 8.0 0.00 0.00 0.00 21 1010.9
20260504191017 80 301 2.0 8.0 0.00 0.00 0.00 22 1011.0
20260504190517 80 302 3.0 8.0 0.00 0.00 0.00 23 1011.0
20260504190129 80 271 2.0 6.0 0.00 0.00 0.00 22 1011.0
20260504185532 80 304 3.0 7.0 0.00 0.00 0.00 24 1011.0
20260504185033 79 270 2.0 6.0 0.00 0.00 0.00 24 1011.0
20260504184559 79 325 3.0 8.0 0.00 0.00 0.00 25 1011.2
20260504184045 79 257 2.0 6.0 0.00 0.00 0.00 24 1011.2
20260504183524 79 335 1.0 4.0 0.00 0.00 0.00 25 1011.1
20260504183100 79 360 1.0 10.0 0.00 0.00 0.00 24 1011.1
20260504182536 78 253 3.0 10.0 0.00 0.00 0.00 24 1011.3
20260504182018 79 19 2.0 9.0 0.00 0.00 0.00 24 1011.3
20260504181600 79 293 2.0 9.0 0.00 0.00 0.00 26 1011.4
20260504181037 79 242 2.0 4.0 0.00 0.00 0.00 23 1011.3
20260504180523 79 202 2.0 5.0 0.00 0.00 0.00 24 1011.4
20260504180059 78 311 2.0 8.0 0.00 0.00 0.00 25 1011.4
20260504175537 78 21 3.0 8.0 0.00 0.00 0.00 23 1011.4
20260504175041 78 202 3.0 6.0 0.00 0.00 0.00 25 1011.4
20260504174615 78 283 1.0 7.0 0.00 0.00 0.00 25 1011.5
20260504174037 78 352 2.0 6.0 0.00 0.00 0.00 24 1011.4
20260504173541 77 79 1.0 4.0 0.00 0.00 0.00 24 1011.4
20260504173128 77 284 1.0 6.0 0.00 0.00 0.00 24 1011.5
20260504172537 77 343 1.0 6.0 0.00 0.00 0.00 25 1011.5
20260504172036 77 317 1.0 6.0 0.00 0.00 0.00 25 1011.5
20260504171615 77 219 1.0 5.0 0.00 0.00 0.00 24 1011.6
20260504171043 76 284 0.0 6.0 0.00 0.00 0.00 27 1011.7
20260504170532 76 352 1.0 5.0 0.00 0.00 0.00 26 1011.7
20260504170141 76 252 1.0 6.0 0.00 0.00 0.00 26 1011.5
20260504160103 68 360 1.0 4.0 0.00 0.00 0.00 36 1011.9
20260504151018 61 360 0.0 3.0 0.00 0.00 0.00 44 1012.2
20260504150534 60 287 0.0 2.0 0.00 0.00 0.00 47 1012.2
20260504150214 60 263 1.0 3.0 0.00 0.00 0.00 48 1012.2
20260504141045 54 229 0.0 2.0 0.00 0.00 0.00 59 1012.3
20260504140534 54 229 1.0 3.0 0.00 0.00 0.00 57 1012.3
20260504140215 53 229 1.0 3.0 0.00 0.00 0.00 57 1012.3
20260504130525 50 241 2.0 4.0 0.00 0.00 0.00 62 1012.1
20260504130221 50 242 2.0 4.0 0.00 0.00 0.00 62 1012.2
20260504120212 50 246 2.0 4.0 0.00 0.00 0.00 62 1012.0
20260504110540 51 253 2.0 4.0 0.00 0.00 0.00 62 1011.9
20260504110119 51 250 1.0 4.0 0.00 0.00 0.00 61 1011.9
20260504100540 53 230 3.0 4.0 0.00 0.00 0.00 59 1012.0
20260504100110 52 246 3.0 4.0 0.00 0.00 0.00 59 1012.0
20260504090118 53 236 2.0 5.0 0.00 0.00 0.00 58 1011.8
20260504081708 54 233 3.0 4.0 0.00 0.00 0.00 56 1011.9
20260504081032 54 236 3.0 4.0 0.00 0.00 0.00 57 1011.9
20260504080550 54 247 2.0 4.0 0.00 0.00 0.00 57 1011.9
20260504080218 54 241 2.0 5.0 0.00 0.00 0.00 57 1011.9
20260504070128 56 235 2.0 4.0 0.00 0.00 0.00 53 1011.5
20260504060139 57 229 2.0 4.0 0.00 0.00 0.00 51 1011.5
20260504050529 60 242 3.0 5.0 0.00 0.00 0.00 47 1011.6
20260504050132 60 228 3.0 5.0 0.00 0.00 0.00 45 1011.7
20260504045537 60 225 3.0 7.0 0.00 0.00 0.00 44 1011.6
20260504045015 60 246 4.0 6.0 0.00 0.00 0.00 44 1011.5
20260504044608 60 229 4.0 6.0 0.00 0.00 0.00 45 1011.4
20260504044021 60 244 3.0 5.0 0.00 0.00 0.00 46 1011.4
20260504043522 60 243 3.0 5.0 0.00 0.00 0.00 46 1011.4
20260504043145 61 234 3.0 5.0 0.00 0.00 0.00 45 1011.4
20260504042532 61 225 3.0 5.0 0.00 0.00 0.00 44 1011.4
20260504042039 61 238 3.0 5.0 0.00 0.00 0.00 45 1011.2
20260504041539 61 236 2.0 4.0 0.00 0.00 0.00 45 1011.2
20260504041021 62 244 2.0 4.0 0.00 0.00 0.00 44 1011.2
20260504040531 62 248 2.0 4.0 0.00 0.00 0.00 43 1011.1
20260504040039 62 238 2.0 4.0 0.00 0.00 0.00 43 1011.2
20260504035518 63 234 2.0 5.0 0.00 0.00 0.00 42 1011.1
20260504035031 63 221 3.0 4.0 0.00 0.00 0.00 41 1011.1
20260504034535 64 243 2.0 4.0 0.00 0.00 0.00 41 1011.0
20260504034024 64 232 2.0 4.0 0.00 0.00 0.00 40 1010.9
20260504033530 65 237 2.0 5.0 0.00 0.00 0.00 37 1010.9
20260504033039 66 219 3.0 5.0 0.00 0.00 0.00 37 1010.8
20260504032515 67 225 3.0 5.0 0.00 0.00 0.00 36 1010.7
20260504032035 67 222 2.0 5.0 0.00 0.00 0.00 34 1010.7
20260504031629 67 229 1.0 4.0 0.00 0.00 0.00 34 1010.5
20260504031038 67 214 2.0 5.0 0.00 0.00 0.00 33 1010.4
20260504030539 67 244 1.0 5.0 0.00 0.00 0.00 35 1010.5
20260504030131 67 227 3.0 5.0 0.00 0.00 0.00 33 1010.3
20260504025522 66 225 3.0 4.0 0.00 0.00 0.00 37 1010.2
20260504025024 67 238 0.0 5.0 0.00 0.00 0.00 38 1010.1
20260504024558 67 221 3.0 5.0 0.00 0.00 0.00 37 1010.1
20260504024033 67 227 3.0 5.0 0.00 0.00 0.00 36 1010.1
20260504023533 68 231 2.0 6.0 0.00 0.00 0.00 37 1010.2
20260504023125 68 227 2.0 6.0 0.00 0.00 0.00 37 1010.1
20260504022533 68 235 3.0 5.0 0.00 0.00 0.00 36 1010.1
20260504022030 69 228 3.0 5.0 0.00 0.00 0.00 35 1010.1
20260504021606 69 239 2.0 5.0 0.00 0.00 0.00 35 1009.9
20260504021016 70 222 2.0 5.0 0.00 0.00 0.00 34 1010.0
20260504020527 70 228 2.0 5.0 0.00 0.00 0.00 34 1010.1
20260504020052 70 217 3.0 5.0 0.00 0.00 0.00 33 1010.2
20260504015523 71 215 3.0 6.0 0.00 0.00 0.00 33 1010.2
20260504015030 71 248 2.0 6.0 0.00 0.00 0.00 32 1010.3
20260504014627 71 248 2.0 7.0 0.00 0.00 0.00 30 1010.2
20260504014015 72 236 2.0 7.0 0.00 0.00 0.00 31 1010.3
20260504013515 72 234 2.0 7.0 0.00 0.00 0.00 29 1010.2
20260504013113 73 225 2.0 7.0 0.00 0.00 0.00 28 1010.3
20260504012533 74 254 2.0 4.0 0.00 0.00 0.00 28 1010.2
20260504012022 75 248 2.0 4.0 0.00 0.00 0.00 27 1010.5
20260504011600 76 232 1.0 4.0 0.00 0.00 0.00 27 1010.4
20260504011027 75 227 2.0 4.0 0.00 0.00 0.00 23 1010.5
20260504010524 76 235 1.0 4.0 0.00 0.00 0.00 28 1010.7
20260504010130 77 243 1.0 3.0 0.00 0.00 0.00 26 1010.7
20260504005533 78 257 1.0 4.0 0.00 0.00 0.00 26 1010.9
20260504005039 79 240 1.0 4.0 0.00 0.00 0.00 24 1010.9
20260504004628 80 340 0.0 3.0 0.00 0.00 0.00 21 1010.9
20260504004030 80 263 1.0 3.0 0.00 0.00 0.00 23 1010.9
20260504003533 81 304 1.0 3.0 0.00 0.00 0.00 18 1011.0
20260504003110 82 319 1.0 3.0 0.00 0.00 0.00 21 1011.1
20260504002515 82 360 1.0 4.0 0.00 0.00 0.00 18 1011.3
20260504002014 83 266 0.0 4.0 0.00 0.00 0.00 20 1011.3
20260504001612 83 257 1.0 5.0 0.00 0.00 0.00 22 1011.3
20260504001033 83 282 2.0 5.0 0.00 0.00 0.00 16 1011.4
20260504000515 83 302 1.0 6.0 0.00 0.00 0.00 18 1011.4
20260504000056 83 14 2.0 6.0 0.00 0.00 0.00 16 1011.4
20260503235547 84 344 2.0 5.0 0.00 0.00 0.00 17 1011.3
20260503235021 84 315 0.0 4.0 0.00 0.00 0.00 16 1011.4